When you browse on this site, cookies collect data to enhance your experience and personalize the content and advertising you see.
Visit our Privacy Policy to learn more. By continuing to use the site, you agree to this use of cookies and data.
  • In Latvia
  • List of Countries
  • For 7 days
  • Water Temperature
  • Weather Map
  • Weather Widgets
  • user-avatar
    Login

    Hourly Weather Markin

    Today, 26 August, Monday

    Time Temperature Precipitation Wind Pressure Humidity
    00:00 +25°C° 0 mm 5 mps 759 mmHg 38%
    01:00 +25°C° 0 mm 5 mps 759 mmHg 40%
    02:00 +23°C° 0 mm 5 mps 760 mmHg 42%
    03:00 +23°C° 0 mm 5 mps 760 mmHg 44%
    04:00 +22°C° 0 mm 5 mps 760 mmHg 49%
    05:00 +21°C° 0 mm 5 mps 760 mmHg 55%
    06:00 +21°C° 0 mm 5 mps 760 mmHg 60%
    07:00 +22°C° 0 mm 5 mps 760 mmHg 56%
    08:00 +23°C° 0 mm 6 mps 761 mmHg 52%
    09:00 +26°C° 0 mm 6 mps 761 mmHg 47%
    10:00 +27°C° 0 mm 6 mps 761 mmHg 43%
    11:00 +29°C° 0 mm 6 mps 761 mmHg 38%
    12:00 +30°C° 0 mm 5 mps 761 mmHg 34%
    13:00 +32°C° 0 mm 5 mps 761 mmHg 32%
    14:00 +32°C° 0 mm 5 mps 760 mmHg 31%
    15:00 +33°C° 0 mm 5 mps 760 mmHg 30%
    16:00 +32°C° 0 mm 5 mps 760 mmHg 31%
    17:00 +30°C° 0 mm 5 mps 760 mmHg 32%
    18:00 +30°C° 0 mm 5 mps 760 mmHg 33%
    19:00 +28°C° 0 mm 5 mps 760 mmHg 35%
    20:00 +26°C° 0 mm 4 mps 760 mmHg 37%
    21:00 +23°C° 0 mm 4 mps 760 mmHg 39%
    22:00 +23°C° 0 mm 4 mps 760 mmHg 39%
    23:00 +22°C° 0 mm 4 mps 760 mmHg 39%

    Tomorrow, 27 August, Tuesday

    Time Temperature Precipitation Wind Pressure Humidity
    00:00 +21°C° 0 mm 4 mps 760 mmHg 39%
    01:00 +21°C° 0 mm 4 mps 760 mmHg 40%
    02:00 +20°C° 0 mm 4 mps 760 mmHg 41%
    03:00 +20°C° 0 mm 3 mps 759 mmHg 42%
    04:00 +19°C° 0 mm 3 mps 759 mmHg 44%
    05:00 +19°C° 0 mm 3 mps 759 mmHg 46%
    06:00 +19°C° 0 mm 3 mps 759 mmHg 47%
    07:00 +21°C° 0 mm 4 mps 759 mmHg 43%
    08:00 +23°C° 0 mm 4 mps 759 mmHg 38%
    09:00 +26°C° 0 mm 4 mps 759 mmHg 34%
    10:00 +28°C° 0 mm 4 mps 759 mmHg 31%
    11:00 +29°C° 0 mm 4 mps 758 mmHg 29%
    12:00 +30°C° 0 mm 4 mps 758 mmHg 26%
    13:00 +30°C° 0 mm 4 mps 758 mmHg 25%
    14:00 +32°C° 0 mm 4 mps 757 mmHg 23%
    15:00 +32°C° 0 mm 4 mps 757 mmHg 22%
    16:00 +30°C° 0 mm 4 mps 757 mmHg 23%
    17:00 +29°C° 0 mm 4 mps 757 mmHg 24%
    18:00 +28°C° 0 mm 5 mps 756 mmHg 25%
    19:00 +26°C° 0 mm 5 mps 757 mmHg 30%
    20:00 +23°C° 0 mm 4 mps 757 mmHg 35%
    21:00 +22°C° 0 mm 4 mps 757 mmHg 40%
    22:00 +21°C° 0 mm 4 mps 757 mmHg 42%
    23:00 +20°C° 0 mm 3 mps 757 mmHg 45%

    Day after tomorrow, 28 August, Wednesday

    Time Temperature Precipitation Wind Pressure Humidity
    00:00 +19°C° 0 mm 3 mps 757 mmHg 47%
    01:00 +19°C° 0 mm 3 mps 757 mmHg 49%
    02:00 +19°C° 0 mm 3 mps 757 mmHg 52%
    03:00 +18°C° 0 mm 3 mps 757 mmHg 55%
    04:00 +18°C° 0 mm 3 mps 757 mmHg 60%
    05:00 +18°C° 0 mm 3 mps 757 mmHg 65%
    06:00 +18°C° 0 mm 3 mps 757 mmHg 71%
    07:00 +20°C° 0 mm 3 mps 757 mmHg 65%
    08:00 +22°C° 0 mm 4 mps 757 mmHg 59%
    09:00 +25°C° 0 mm 4 mps 757 mmHg 53%
    10:00 +26°C° 0 mm 4 mps 757 mmHg 49%
    11:00 +26°C° 0 mm 5 mps 757 mmHg 45%
    12:00 +27°C° 0 mm 5 mps 757 mmHg 40%
    13:00 +28°C° 0 mm 5 mps 757 mmHg 38%
    14:00 +28°C° 0 mm 6 mps 757 mmHg 36%
    15:00 +28°C° 0 mm 6 mps 757 mmHg 34%
    16:00 +27°C° 0 mm 6 mps 757 mmHg 34%
    17:00 +26°C° 0 mm 6 mps 757 mmHg 35%
    18:00 +24°C° 0 mm 6 mps 757 mmHg 36%
    19:00 +22°C° 0 mm 6 mps 757 mmHg 39%
    20:00 +21°C° 0 mm 5 mps 758 mmHg 41%
    21:00 +19°C° 0 mm 5 mps 758 mmHg 43%
    22:00 +17°C° 0 mm 5 mps 759 mmHg 43%
    23:00 +16°C° 0 mm 5 mps 759 mmHg 42%

    29 August, Thursday

    Time Temperature Precipitation Wind Pressure Humidity
    00:00 +15°C° 0 mm 5 mps 759 mmHg 41%
    01:00 +14°C° 0 mm 5 mps 759 mmHg 45%
    02:00 +13°C° 0 mm 4 mps 760 mmHg 49%
    03:00 +12°C° 0 mm 4 mps 760 mmHg 53%
    04:00 +11°C° 0 mm 4 mps 760 mmHg 55%
    05:00 +11°C° 0 mm 4 mps 760 mmHg 57%
    06:00 +10°C° 0 mm 4 mps 761 mmHg 60%
    07:00 +12°C° 0 mm 4 mps 761 mmHg 55%
    08:00 +13°C° 0 mm 5 mps 761 mmHg 51%
    09:00 +15°C° 0 mm 5 mps 761 mmHg 46%
    10:00 +16°C° 0 mm 5 mps 761 mmHg 41%
    11:00 +19°C° 0 mm 5 mps 761 mmHg 37%
    12:00 +21°C° 0 mm 5 mps 760 mmHg 33%
    13:00 +21°C° 0 mm 5 mps 760 mmHg 31%
    14:00 +22°C° 0 mm 6 mps 760 mmHg 29%
    15:00 +22°C° 0 mm 6 mps 759 mmHg 27%
    16:00 +22°C° 0 mm 5 mps 759 mmHg 28%
    17:00 +21°C° 0 mm 5 mps 759 mmHg 28%
    18:00 +21°C° 0 mm 5 mps 759 mmHg 29%
    19:00 +19°C° 0 mm 5 mps 759 mmHg 32%
    20:00 +18°C° 0 mm 4 mps 759 mmHg 35%
    21:00 +15°C° 0 mm 4 mps 759 mmHg 38%
    22:00 +15°C° 0 mm 4 mps 759 mmHg 40%
    23:00 +14°C° 0 mm 4 mps 759 mmHg 42%

    30 August, Friday

    Time Temperature Precipitation Wind Pressure Humidity
    00:00 +14°C° 0 mm 4 mps 760 mmHg 43%
    01:00 +13°C° 0 mm 4 mps 759 mmHg 47%
    02:00 +13°C° 0 mm 4 mps 759 mmHg 50%
    03:00 +12°C° 0 mm 4 mps 759 mmHg 53%
    04:00 +12°C° 0 mm 4 mps 759 mmHg 55%
    05:00 +11°C° 0 mm 4 mps 759 mmHg 56%
    06:00 +11°C° 0 mm 4 mps 759 mmHg 58%
    07:00 +13°C° 0 mm 4 mps 760 mmHg 52%
    08:00 +15°C° 0 mm 5 mps 760 mmHg 45%
    09:00 +17°C° 0 mm 6 mps 760 mmHg 38%
    10:00 +19°C° 0 mm 6 mps 760 mmHg 35%
    11:00 +20°C° 0 mm 6 mps 760 mmHg 31%
    12:00 +21°C° 0 mm 6 mps 760 mmHg 27%
    13:00 +22°C° 0 mm 6 mps 760 mmHg 26%
    14:00 +23°C° 0 mm 6 mps 759 mmHg 24%
    15:00 +23°C° 0 mm 6 mps 759 mmHg 23%
    16:00 +23°C° 0 mm 5 mps 759 mmHg 23%
    17:00 +22°C° 0 mm 5 mps 759 mmHg 23%
    18:00 +22°C° 0 mm 5 mps 759 mmHg 24%
    19:00 +20°C° 0 mm 4 mps 759 mmHg 26%
    20:00 +18°C° 0 mm 4 mps 759 mmHg 29%
    21:00 +16°C° 0 mm 3 mps 760 mmHg 32%
    22:00 +14°C° 0 mm 3 mps 760 mmHg 33%
    23:00 +13°C° 0 mm 3 mps 760 mmHg 34%

    31 August, Saturday

    Time Temperature Precipitation Wind Pressure Humidity
    00:00 +13°C° 0 mm 4 mps 760 mmHg 36%
    01:00 +12°C° 0 mm 3 mps 760 mmHg 38%
    02:00 +12°C° 0 mm 3 mps 760 mmHg 41%
    03:00 +11°C° 0 mm 3 mps 760 mmHg 43%
    04:00 +11°C° 0 mm 4 mps 760 mmHg 46%
    05:00 +11°C° 0 mm 4 mps 760 mmHg 48%
    06:00 +10°C° 0 mm 4 mps 761 mmHg 51%
    07:00 +13°C° 0 mm 4 mps 761 mmHg 46%
    08:00 +15°C° 0 mm 5 mps 761 mmHg 42%
    09:00 +17°C° 0 mm 5 mps 761 mmHg 38%
    10:00 +20°C° 0 mm 5 mps 761 mmHg 34%
    11:00 +21°C° 0 mm 5 mps 761 mmHg 30%
    12:00 +23°C° 0 mm 5 mps 761 mmHg 25%
    13:00 +23°C° 0 mm 5 mps 761 mmHg 24%
    14:00 +25°C° 0 mm 5 mps 761 mmHg 23%
    15:00 +25°C° 0 mm 5 mps 760 mmHg 22%
    16:00 +25°C° 0 mm 4 mps 760 mmHg 22%
    17:00 +23°C° 0 mm 4 mps 760 mmHg 23%
    18:00 +22°C° 0 mm 4 mps 760 mmHg 24%
    19:00 +20°C° 0 mm 4 mps 761 mmHg 27%
    20:00 +18°C° 0 mm 3 mps 761 mmHg 30%
    21:00 +16°C° 0 mm 3 mps 761 mmHg 33%
    22:00 +16°C° 0 mm 3 mps 761 mmHg 34%
    23:00 +14°C° 0 mm 3 mps 761 mmHg 35%
    Show more